Retour au catalogue

DELTA 1 DEB

ActifUNKNOWN
NORAD 10178·DEBRIS·🇺🇸 United States

Lancé Jul 14, 1977 depuis Cape Canaveral Space Force Station

Loading…

Prochains Passages (prochaines 24 heures)

TLE

FraisSource: Space-Track

Époque: Sep 14, 2026, 06:07 UTC

1 10178U 77065G   26257.25555332 -.00000490  00000-0 -17298-2 0  9998
2 10178  28.7118 251.3839 0904668 189.4004 293.7906 12.09521869 21042

Suivez DELTA 1 DEB en temps réel avec AllMySat

Download on the App Store